N1YZ Weather Reports


Display with metric or nautical units.
time (UTC)temp
F
wind
direction
speed
MPH
gust
MPH
rain 1hr
in
rain 24hr
in
rain mn
in
humidity
%
barometer
mb
20260506221800 72 353 0.0 0.0 0.00 0.21 0.21 99 1031.2
20260506221258 72 356 0.0 0.0 0.00 0.21 0.21 99 1030.9
20260506220755 72 6 0.0 0.0 0.00 0.21 0.21 99 1031.1
20260506220249 72 351 0.0 0.0 0.00 0.21 0.21 99 1031.3
20260506215747 72 351 0.0 0.0 0.00 0.21 0.21 99 1031.3
20260506215242 71 351 0.0 0.0 0.00 0.21 0.21 99 1031.2
20260506214734 71 352 0.0 0.0 0.00 0.21 0.21 99 1031.2
20260506214231 71 347 1.0 2.0 0.00 0.21 0.21 99 1031.3
20260506213729 71 8 1.0 2.0 0.05 0.21 0.21 99 1031.4
20260506213226 72 3 1.0 1.0 0.05 0.21 0.21 99 1031.3
20260506212722 72 346 2.0 2.0 0.07 0.20 0.20 99 1031.6
20260506212218 72 336 1.0 2.0 0.07 0.20 0.20 99 1031.5
20260506211708 72 2 0.0 0.0 0.07 0.20 0.20 99 1031.6
20260506211204 72 6 0.0 0.0 0.00 0.19 0.19 99 1031.4
20260506210701 72 341 0.0 0.0 0.07 0.19 0.19 98 1031.8
20260506210158 72 3 0.0 0.0 0.35 0.19 0.19 97 1032.0
20260506205656 72 4 0.0 0.0 0.94 0.18 0.18 97 1031.7
20260506205156 73 344 1.0 1.0 0.83 0.14 0.14 95 1031.5
20260506204648 73 5 0.0 0.0 0.12 0.02 0.02 92 1031.8
20260506204145 74 6 0.0 0.0 0.00 0.00 0.00 91 1031.8
20260506203643 74 26 0.0 0.0 0.00 0.00 0.00 91 1031.8
20260506203140 74 16 0.0 0.0 0.00 0.00 0.00 90 1031.6
20260506202638 74 356 1.0 2.0 0.00 0.00 0.00 90 1031.5
20260506202133 74 343 2.0 2.0 0.00 0.00 0.00 90 1031.7
20260506201631 74 8 0.0 0.0 0.00 0.00 0.00 89 1031.8
20260506201127 74 9 0.0 0.0 0.00 0.00 0.00 89 1032.0
20260506200624 75 350 1.0 1.0 0.00 0.00 0.00 89 1031.9
20260506200121 75 324 1.0 1.0 0.00 0.00 0.00 89 1032.0
20260506195617 75 341 1.0 2.0 0.00 0.00 0.00 88 1032.1
20260506195113 75 3 0.0 0.0 0.00 0.00 0.00 88 1032.0
20260506194611 75 12 0.0 0.0 0.00 0.00 0.00 88 1032.3
20260506194107 76 339 0.0 1.0 0.00 0.00 0.00 87 1032.3
20260506193600 76 13 0.0 0.0 0.00 0.00 0.00 86 1032.7
20260506193057 76 4 0.0 0.0 0.00 0.00 0.00 86 1032.8
20260506192553 76 352 0.0 0.0 0.00 0.00 0.00 85 1032.6
20260506192049 76 29 0.0 0.0 0.00 0.00 0.00 86 1032.8
20260506191546 76 11 0.0 0.0 0.00 0.00 0.00 86 1033.0
20260506191042 75 342 0.0 0.0 0.00 0.00 0.00 86 1032.8
20260506190539 75 352 1.0 1.0 0.00 0.00 0.00 86 1032.8
20260506190036 75 348 0.0 0.0 0.00 0.00 0.00 86 1033.1
20260506185533 75 5 0.0 0.0 0.00 0.00 0.00 86 1032.9
20260506185029 75 6 0.0 0.0 0.00 0.00 0.00 86 1033.1
20260506184527 76 0 0.0 0.0 0.00 0.00 0.00 85 1033.1
20260506184024 76 102 1.0 2.0 0.00 0.00 0.00 84 1033.1
20260506183519 76 22 0.0 0.0 0.00 0.00 0.00 85 1032.9
20260506183016 76 331 2.0 3.0 0.00 0.00 0.00 84 1033.0
20260506182514 76 329 1.0 2.0 0.00 0.00 0.00 84 1033.4
20260506182010 77 312 1.0 2.0 0.00 0.00 0.00 84 1033.2
20260506181509 76 209 0.0 0.0 0.00 0.00 0.00 84 1033.2
20260506181006 76 347 2.0 2.0 0.00 0.00 0.00 84 1033.3
20260506180502 76 3 0.0 0.0 0.00 0.00 0.00 85 1033.2
20260506175958 76 27 0.0 0.0 0.00 0.00 0.00 85 1033.3
20260506175455 76 70 0.0 0.0 0.00 0.00 0.00 85 1033.3
20260506174952 76 2 0.0 1.0 0.00 0.00 0.00 84 1033.1
20260506174450 76 18 0.0 0.0 0.00 0.00 0.00 84 1033.2
20260506173946 76 352 0.0 0.0 0.00 0.00 0.00 83 1033.5
20260506173444 76 1 2.0 2.0 0.00 0.00 0.00 83 1033.2
20260506172940 76 10 0.0 1.0 0.00 0.00 0.00 83 1033.5
20260506172437 76 345 1.0 2.0 0.00 0.00 0.00 83 1033.4
20260506171928 76 14 1.0 2.0 0.00 0.00 0.00 82 1033.6
20260506171426 76 42 0.0 0.0 0.00 0.00 0.00 83 1033.5
20260506170918 76 333 2.0 2.0 0.00 0.00 0.00 82 1033.5
20260506170414 76 30 0.0 1.0 0.00 0.00 0.00 81 1033.6
20260506165913 76 25 0.0 1.0 0.00 0.00 0.00 80 1033.3
20260506165410 76 3 0.0 1.0 0.00 0.00 0.00 82 1033.4
20260506164906 76 354 2.0 3.0 0.00 0.00 0.00 81 1033.5
20260506164403 76 357 0.0 0.0 0.00 0.00 0.00 82 1033.5
20260506163901 76 359 0.0 1.0 0.00 0.00 0.00 82 1033.7
20260506163356 76 9 0.0 0.0 0.00 0.00 0.00 81 1033.6
20260506162850 77 48 0.0 0.0 0.00 0.00 0.00 80 1033.7
20260506162349 78 305 1.0 2.0 0.00 0.00 0.00 78 1033.4
20260506161841 78 358 0.0 0.0 0.00 0.00 0.00 81 1033.4
20260506161338 77 10 0.0 0.0 0.00 0.00 0.00 79 1033.2
20260506160835 77 12 0.0 0.0 0.00 0.00 0.00 80 1033.4
20260506160331 76 18 0.0 0.0 0.00 0.00 0.00 82 1033.6
20260506155830 76 331 2.0 2.0 0.00 0.00 0.00 82 1033.4
20260506155327 76 23 0.0 0.0 0.00 0.00 0.00 81 1033.2
20260506153439 75 25 0.0 0.0 0.00 0.00 0.00 83 1033.5
20260506152937 74 345 0.0 1.0 0.00 0.00 0.00 83 1033.4
20260506152433 74 320 1.0 1.0 0.00 0.00 0.00 83 1033.7
20260506151932 74 351 0.0 0.0 0.00 0.00 0.00 83 1033.7
20260506151429 74 339 1.0 2.0 0.00 0.00 0.00 83 1033.7
20260506150927 74 1 0.0 0.0 0.00 0.00 0.00 84 1033.9
20260506150422 73 17 0.0 0.0 0.00 0.00 0.00 84 1033.7
20260506145920 73 3 0.0 0.0 0.00 0.00 0.00 84 1033.6
20260506145416 73 17 0.0 0.0 0.00 0.00 0.00 85 1033.7
20260506144913 73 325 2.0 3.0 0.00 0.00 0.00 85 1033.8
20260506144409 73 5 1.0 1.0 0.00 0.00 0.00 86 1033.8
20260506143908 72 354 1.0 1.0 0.00 0.00 0.00 86 1034.0
20260506143405 72 348 0.0 0.0 0.00 0.00 0.00 87 1033.9
20260506142903 72 8 0.0 0.0 0.00 0.00 0.00 87 1033.8
20260506142401 71 15 0.0 0.0 0.00 0.00 0.00 88 1033.7
20260506141859 71 356 2.0 2.0 0.00 0.00 0.00 88 1033.5
20260506141356 71 7 0.0 0.0 0.00 0.00 0.00 89 1034.1
20260506140854 71 18 0.0 0.0 0.00 0.00 0.00 89 1033.6
20260506140351 70 304 2.0 3.0 0.00 0.00 0.00 89 1033.5
20260506135848 70 346 1.0 1.0 0.00 0.00 0.00 91 1033.6
20260506135345 70 29 0.0 0.0 0.00 0.00 0.00 91 1033.6
20260506134841 70 356 0.0 0.0 0.00 0.00 0.00 91 1033.8
20260506134337 69 8 0.0 1.0 0.00 0.00 0.00 91 1034.0
20260506133835 69 12 0.0 0.0 0.00 0.00 0.00 91 1034.2
20260506133331 69 334 0.0 1.0 0.00 0.00 0.00 92 1033.9
20260506132828 69 4 2.0 3.0 0.00 0.00 0.00 92 1034.2
20260506132325 68 13 0.0 1.0 0.00 0.00 0.00 92 1034.2
20260506131823 68 358 2.0 2.0 0.00 0.00 0.00 92 1034.1
20260506131319 68 18 0.0 0.0 0.00 0.00 0.00 93 1034.2
20260506130817 68 19 0.0 0.0 0.00 0.00 0.00 93 1034.3
20260506130313 68 345 0.0 0.0 0.00 0.00 0.00 93 1034.4
20260506125811 68 350 1.0 1.0 0.00 0.00 0.00 93 1034.2
20260506125309 68 343 0.0 0.0 0.00 0.00 0.00 93 1034.1
20260506124807 68 354 0.0 1.0 0.00 0.00 0.00 93 1033.9
20260506124304 68 352 0.0 0.0 0.00 0.00 0.00 93 1034.1
20260506123801 68 348 0.0 0.0 0.00 0.00 0.00 93 1034.0
20260506123300 67 14 2.0 2.0 0.00 0.00 0.00 93 1034.0
20260506122756 67 7 0.0 0.0 0.00 0.00 0.00 93 1033.8
20260506122253 67 272 1.0 3.0 0.00 0.00 0.00 93 1033.8
20260506121751 67 318 3.0 3.0 0.00 0.00 0.00 93 1033.6
20260506121248 67 5 0.0 0.0 0.00 0.00 0.00 92 1033.9
20260506120745 67 8 0.0 0.0 0.00 0.00 0.00 92 1033.5
20260506120243 67 4 0.0 0.0 0.00 0.00 0.00 92 1033.3
20260506115740 67 2 0.0 0.0 0.00 0.00 0.00 92 1033.4
20260506115239 67 351 0.0 1.0 0.00 0.00 0.00 92 1032.9
20260506114736 67 28 0.0 0.0 0.00 0.00 0.00 92 1033.1
20260506114234 66 6 0.0 0.0 0.00 0.00 0.00 92 1033.0
20260506113732 66 7 0.0 0.0 0.00 0.00 0.00 92 1033.3
20260506113229 66 0 0.0 0.0 0.00 0.00 0.00 92 1032.8
20260506112725 66 1 0.0 1.0 0.00 0.00 0.00 92 1032.7
20260506112223 66 319 1.0 3.0 0.00 0.00 0.00 91 1032.6
20260506111720 66 1 2.0 2.0 0.00 0.00 0.00 91 1032.6
20260506111218 66 12 0.0 0.0 0.00 0.00 0.00 91 1032.7
20260506110715 66 11 0.0 0.0 0.00 0.00 0.00 91 1032.8
20260506110213 66 3 0.0 0.0 0.00 0.00 0.00 91 1032.7
20260506105709 66 359 0.0 0.0 0.00 0.00 0.00 91 1032.5
20260506105206 66 356 0.0 0.0 0.00 0.00 0.00 91 1032.5
20260506104704 66 1 0.0 0.0 0.00 0.00 0.00 91 1032.3
20260506104201 66 355 0.0 0.0 0.00 0.00 0.00 91 1032.4
20260506103658 66 11 0.0 0.0 0.00 0.00 0.00 90 1032.6
20260506103155 66 359 1.0 2.0 0.00 0.00 0.00 90 1032.3
20260506102653 66 7 0.0 0.0 0.00 0.00 0.00 90 1032.1
20260506102151 66 12 0.0 0.0 0.00 0.00 0.00 90 1032.2
20260506101647 66 3 1.0 2.0 0.00 0.00 0.00 90 1032.3
20260506101144 66 0 0.0 0.0 0.00 0.00 0.00 90 1032.1
20260506100643 66 2 0.0 0.0 0.00 0.00 0.00 90 1032.0
20260506100140 66 4 1.0 1.0 0.00 0.00 0.00 90 1031.7
20260506095639 67 352 0.0 0.0 0.00 0.00 0.00 89 1031.9
20260506095135 67 358 1.0 1.0 0.00 0.00 0.00 89 1031.9
20260506094632 67 1 0.0 0.0 0.00 0.00 0.00 89 1031.8
20260506094130 67 344 0.0 0.0 0.00 0.00 0.00 89 1031.8
20260506093629 67 351 0.0 0.0 0.00 0.00 0.00 89 1031.6
20260506093125 67 358 1.0 2.0 0.00 0.00 0.00 89 1031.4
20260506092623 67 6 0.0 1.0 0.00 0.00 0.00 88 1031.4
20260506092120 67 1 1.0 1.0 0.00 0.00 0.00 88 1031.3
20260506091618 67 350 0.0 0.0 0.00 0.00 0.00 88 1031.4
20260506091114 67 345 0.0 0.0 0.00 0.00 0.00 87 1031.5
20260506090613 67 2 0.0 0.0 0.00 0.00 0.00 87 1031.5
20260506085600 67 6 0.0 0.0 0.00 0.00 0.00 87 1031.0
20260506085056 67 2 2.0 2.0 0.00 0.00 0.00 87 1030.9
20260506084553 67 357 0.0 0.0 0.00 0.00 0.00 87 1031.1
20260506084049 67 3 0.0 1.0 0.00 0.00 0.00 87 1031.0
20260506083547 67 354 0.0 0.0 0.00 0.00 0.00 87 1031.0
20260506083044 67 347 1.0 2.0 0.00 0.00 0.00 86 1031.2
20260506082541 67 8 0.0 0.0 0.00 0.00 0.00 86 1031.1
20260506082036 67 329 1.0 2.0 0.00 0.00 0.00 86 1031.1
20260506081535 67 7 0.0 0.0 0.00 0.00 0.00 86 1031.1
20260506081032 67 4 0.0 0.0 0.00 0.00 0.00 86 1031.3
20260506080530 67 7 0.0 0.0 0.00 0.00 0.00 85 1031.2
20260506073513 68 335 1.0 2.0 0.00 0.00 0.00 83 1031.3
20260506073010 68 334 2.0 2.0 0.00 0.00 0.00 83 1031.1
20260506072507 68 358 0.0 0.0 0.00 0.00 0.00 83 1031.0
20260506072005 68 351 1.0 1.0 0.00 0.00 0.00 83 1031.1
20260506071503 68 9 1.0 2.0 0.00 0.00 0.00 83 1031.2
20260506071000 68 11 1.0 1.0 0.00 0.00 0.00 82 1031.2
20260506070457 68 2 2.0 2.0 0.00 0.00 0.00 82 1031.4
20260506062434 69 358 1.0 2.0 0.00 0.00 0.00 81 1031.7
20260506061930 69 336 0.0 2.0 0.00 0.00 0.00 81 1031.9
20260506061427 69 350 1.0 2.0 0.00 0.00 0.00 80 1031.9
20260506060925 69 11 0.0 1.0 0.00 0.00 0.00 81 1031.9
20260506060423 69 352 1.0 1.0 0.00 0.00 0.00 80 1032.0
20260506051354 69 1 2.0 2.0 0.00 0.00 0.00 79 1031.9
20260506050852 69 359 2.0 3.0 0.00 0.00 0.00 78 1032.0
20260506050349 69 10 1.0 2.0 0.00 0.00 0.00 78 1031.9
20260506044839 69 356 2.0 2.0 0.00 0.00 0.00 78 1031.8
20260506044338 70 356 2.0 2.0 0.00 0.00 0.00 77 1031.7
20260506043834 70 344 1.0 1.0 0.00 0.00 0.00 77 1031.7
20260506043331 70 4 2.0 3.0 0.00 0.00 0.00 77 1031.8
20260506042830 70 8 1.0 2.0 0.00 0.00 0.00 78 1031.4
20260506042328 70 12 0.0 1.0 0.00 0.00 0.00 77 1031.5
20260506041827 70 7 0.0 1.0 0.00 0.00 0.00 77 1031.8
20260506041323 70 14 1.0 2.0 0.00 0.00 0.00 77 1031.7
20260506040821 70 358 2.0 2.0 0.00 0.00 0.00 77 1031.9
20260506040318 70 17 0.0 0.0 0.00 0.00 0.00 77 1031.7
20260506035814 70 12 1.0 2.0 0.00 0.00 0.00 76 1031.6
20260506035312 70 340 2.0 2.0 0.00 0.00 0.00 76 1031.8
20260506034809 71 358 3.0 3.0 0.00 0.00 0.00 75 1031.9
20260506034306 71 1 3.0 3.0 0.00 0.00 0.00 75 1031.9
20260506033803 71 15 1.0 2.0 0.00 0.00 0.00 75 1031.5
20260506033300 71 15 2.0 2.0 0.00 0.00 0.00 75 1031.9
20260506032756 71 8 1.0 2.0 0.00 0.00 0.00 74 1031.8
20260506032253 71 3 2.0 3.0 0.00 0.00 0.00 74 1031.8
20260506031750 71 4 2.0 3.0 0.00 0.00 0.00 73 1031.8
20260506031247 71 358 1.0 1.0 0.00 0.00 0.00 73 1031.6
20260506030745 70 8 2.0 2.0 0.00 0.00 0.00 73 1031.4
20260506030243 70 17 0.0 0.0 0.00 0.00 0.00 73 1031.6
20260506025740 71 14 1.0 1.0 0.00 0.00 0.00 72 1031.6
20260506025236 71 16 0.0 1.0 0.00 0.00 0.00 72 1031.6
20260506024733 71 12 2.0 2.0 0.00 0.00 0.00 71 1031.4
20260506024230 71 15 0.0 0.0 0.00 0.00 0.00 71 1031.5
20260506023726 71 13 0.0 0.0 0.00 0.00 0.00 71 1031.6
20260506023223 70 17 0.0 0.0 0.00 0.00 0.00 71 1031.3
20260506022720 70 16 0.0 0.0 0.00 0.00 0.00 71 1031.5
20260506022218 70 15 0.0 0.0 0.00 0.00 0.00 70 1031.3
20260506021715 71 16 0.0 0.0 0.00 0.00 0.00 70 1031.1
20260506021212 71 8 0.0 0.0 0.00 0.00 0.00 70 1031.4
20260506020709 71 2 0.0 0.0 0.00 0.00 0.00 69 1031.5
20260506020207 71 1 0.0 0.0 0.00 0.00 0.00 69 1031.2
20260506015704 71 356 0.0 0.0 0.00 0.00 0.00 69 1031.3
20260506015202 71 359 0.0 0.0 0.00 0.00 0.00 69 1031.3
20260506014658 71 359 0.0 0.0 0.00 0.00 0.00 69 1031.2
20260506014154 71 359 0.0 0.0 0.00 0.00 0.00 69 1031.3
20260506013652 71 359 0.0 0.0 0.00 0.00 0.00 69 1031.3
20260506013149 71 359 0.0 0.0 0.00 0.00 0.00 69 1031.1
20260506012645 71 359 0.0 0.0 0.00 0.00 0.00 69 1031.3
20260506012142 71 359 0.0 0.0 0.00 0.00 0.00 69 1031.2
20260506011640 71 0 0.0 0.0 0.00 0.00 0.00 68 1031.7
20260506011136 71 0 0.0 0.0 0.00 0.00 0.00 68 1031.5
20260506010634 72 0 0.0 0.0 0.00 0.00 0.00 68 1031.2
20260506010131 72 0 0.0 0.0 0.00 0.00 0.00 68 1031.0
20260506005622 72 0 0.0 0.0 0.00 0.00 0.00 67 1031.2
20260506005119 72 0 0.0 0.0 0.00 0.00 0.00 66 1031.2
20260506004616 72 0 0.0 0.0 0.00 0.00 0.00 66 1031.1
20260506004113 72 0 0.0 0.0 0.00 0.00 0.00 67 1031.1
20260506003609 73 0 0.0 0.0 0.00 0.00 0.00 66 1030.7
20260506003105 73 1 0.0 0.0 0.00 0.00 0.00 65 1030.9
20260506002601 73 4 0.0 0.0 0.00 0.00 0.00 66 1031.1
20260506002057 73 353 0.0 0.0 0.00 0.00 0.00 65 1031.0
20260506001553 73 356 0.0 0.0 0.00 0.00 0.00 65 1031.2
20260506001051 73 353 0.0 0.0 0.00 0.00 0.00 65 1031.3
20260506000548 73 354 0.0 0.0 0.00 0.00 0.00 65 1031.4
20260506000045 74 2 0.0 0.0 0.00 0.00 0.00 65 1031.5
20260505235543 74 358 0.0 0.0 0.00 0.00 0.00 63 1031.3
20260505235040 74 2 0.0 0.0 0.00 0.00 0.00 63 1031.5
20260505234537 74 350 0.0 0.0 0.00 0.00 0.00 63 1031.3
20260505234034 74 344 0.0 0.0 0.00 0.00 0.00 64 1031.2
20260505233531 74 345 0.0 0.0 0.00 0.00 0.00 64 1031.2
20260505233029 74 345 0.0 0.0 0.00 0.00 0.00 63 1031.5
20260505232526 74 350 0.0 0.0 0.00 0.00 0.00 62 1031.7
20260505232023 74 353 0.0 0.0 0.00 0.00 0.00 63 1031.7
20260505231520 74 355 0.0 0.0 0.00 0.00 0.00 63 1031.6
20260505231013 74 353 1.0 1.0 0.00 0.00 0.00 62 1031.7
20260505230510 74 12 0.0 0.0 0.00 0.00 0.00 64 1031.8
20260505230007 74 351 1.0 1.0 0.00 0.00 0.00 63 1031.7
20260505225504 74 6 0.0 0.0 0.00 0.00 0.00 63 1031.8
20260505224959 75 353 1.0 2.0 0.00 0.00 0.00 62 1032.0
20260505224456 75 355 2.0 2.0 0.00 0.00 0.00 61 1031.9
20260505223954 74 0 1.0 1.0 0.00 0.00 0.00 62 1031.8
20260505223450 74 14 1.0 1.0 0.00 0.00 0.00 62 1032.0
20260505222947 74 9 0.0 0.0 0.00 0.00 0.00 62 1031.8
20260505222443 74 10 1.0 2.0 0.00 0.00 0.00 62 1031.7